Location: Houhaj�rvi
(61.2833°N, 23.0000°E)
Time: 00:35:15
(UTC+00:00)

NOSS 3-2 (C) - Pass Details

Date: 27 February 2020
Orbit: 811 x 1401 km, 63.4° (Epoch: 06 April)

Event Time Altitude Azimuth Distance (km) Brightness Sun altitude
Rises 17:09:42 0° 293° (WNW) 3,750 8.0 -10.8°
Reaches altitude 10° 17:12:09 10° 293° (WNW) 2,876 7.2 -11.1°
Maximum altitude 17:19:03 85° 207° (SSW) 1,182 3.9 -11.9°
Enters shadow 17:26:23 13° 120° (ESE) 3,067 5.5 -12.8°
